Tracking 19832 objects as of 24-Aug-2019
HD Live streaming from Space Station
objects crossing your sky now

TDRS 10

Track TDRS 10 now!
TDRS 10 is classified as:


NORAD ID: 27566
Int'l Code: 2002-055A
Perigee: 35,777.9 km
Apogee: 35,812.1 km
Inclination: 6.4 °
Period: 1,436.2 minutes
Semi major axis: 42165 km
RCS: 5.0118 m2 (large)
Launch date: December 5, 2002
Source: United States (US)
Launch site: AIR FORCE EASTERN TEST RANGE (AFETR)

Tracking and communications with space shuttle, other missions.
aabbcc
Your satellite tracking list
Your tracking list is empty




NASA's NSSDC Master Catalog

Two Line Element Set (TLE):
1 27566U 02055A   19235.75236012 +.00000089 +00000-0 +00000-0 0  9991
2 27566 006.3900 054.9521 0004045 309.9697 066.5802 01.00267302061272
Source of the keplerian elements: AFSPC